Regional Weather Roundup
Issued by NWS

Home | Current Version | Previous Version | Text Only | Print | Product List | Glossary Off
Versions: 1 2 3 4 5 6 7 8 9 10 11 12 13 14 15 16 17 18 19 20 21 22 23 24 25 26 27 28 29 30 31 32 33 34 35 36 37 38 39 40 41 42 43 44 45 46 47 48 49 50

000
ASUS43 KLOT 162310
RWRIL

ILLINOIS REGIONAL WEATHER ROUNDUP
NATIONAL WEATHER SERVICE CHICAGO/ROMEOVILLE IL
600 PM CDT TUE SEP 16 2014

NOTE: "FAIR" INDICATES FEW OR NO CLOUDS BELOW 12,000 FEET WITH NO
SIGNIFICANT WEATHER AND/OR OBSTRUCTIONS TO VISIBILITY.

* THESE STATIONS ARE NOT UNDER NWS QUALITY CONTROL. THEY ALSO MAY NOT
  REPORT WEATHER SUCH AS PRECIPITATION OR FOG.

ILZ001-002-007-009-015-016-024-170000-
NORTHWEST ILLINOIS

CITY           SKY/WX    TMP DP  RH WIND       PRES   REMARKS
MOLINE         SUNNY     67  42  40 CALM      30.10F
STERLING*      SUNNY     66  45  45 NW3       30.10S
SAVANNA*       SUNNY     65  40  39 CALM      30.10F
$$

ILZ003-004-008-010-011-017-018-170000-
NORTH CENTRAL ILLINOIS

CITY           SKY/WX    TMP DP  RH WIND       PRES   REMARKS
ROCKFORD       SUNNY     66  41  40 NW5       30.11F
FREEPORT*      SUNNY     63  43  48 W5        30.13S
ROCHELLE*      SUNNY     64  41  43 W3        30.10F
DE KALB*       SUNNY     61  43  50 W6        30.11S
PERU*          SUNNY     65  46  49 SW3       30.10F
$$

ILZ005-006-012>014-019>023-170000-
NORTHEAST ILLINOIS

CITY           SKY/WX    TMP DP  RH WIND       PRES   REMARKS
CHICAGO-OHARE  SUNNY     68  40  35 W9        30.09F
CHICAGO-MIDWAY MOSUNNY   67  40  37 NW10      30.09F
AURORA         SUNNY     65  41  41 NW3       30.10F
LANSING*       CLEAR     64  44  48 W5        30.11S
JOLIET*        SUNNY     65  41  41 CALM      30.11S
WAUKEGAN       SUNNY     59  44  57 E7        30.10S
DUPAGE AIRPORT SUNNY     65  42  43 W7        30.09F
KANKAKEE*      SUNNY     65  46  49 CALM      30.11S
WHEELING       SUNNY     63  46  54 E8        30.12S
MORRIS*        SUNNY     66  46  47 CALM      30.10S
ROMEOVILLE*    SUNNY     64  44  46 W3        30.10F
NORTHERLY ISL    N/A     61  50  67 E6          N/A
$$

LMZ740>746-170000-
SOUTHERN LAKE MICHIGAN

STATION/POSITION SKY/WX   TEMP    WIND        PRES    VSBY  WAVE
                          AIR SEA DIR/SP/G                  HT/PER
                          (F)     (DEG/KT/KT) (MB)    (MI)  (FT/S)
SOUTHERN BUOY              60 65   CALM  /  2 1020.0F         1
WAUKEGAN HARBOR            61     120/  7/  8   N/A
HARRISON CRIB              60      80/  8/  9   N/A
BURNHAM HARBOR             61      60/  6/  7   N/A
CALUMET HARBOR             61      50/  6/  7 1018.1S
MICHIGAN CITY              60      40/  6/  7   N/A
MICHIGAN CITY 6N           61 65   60/  4/  6   N/A           1/ 4
ST. JOSEPH                 61 67  350/  4/  8   N/A           2/ 4
$$

ILZ025>027-034>036-040-047-049-050-058-095>099-170000-
WEST-CENTRAL ILLINOIS

CITY           SKY/WX    TMP DP  RH WIND       PRES   REMARKS
QUINCY         SUNNY     67  47  48 CALM      30.09F
GALESBURG*     SUNNY     68  48  47 SE3       30.10F
MACOMB*        SUNNY     67  44  44 CALM      30.12F
JACKSONVILLE*  SUNNY     69  49  49 CALM      30.11S
PITTSFIELD*    SUNNY     68  48  47 CALM      30.10F
$$

ILZ028>032-037-038-041>044-048-051>054-059>061-170000-
CENTRAL ILLINOIS

CITY           SKY/WX    TMP DP  RH WIND       PRES   REMARKS
PONTIAC        SUNNY     66  43  42 CALM      30.10F
DECATUR        SUNNY     67  49  52 SW5       30.11S
PEORIA         SUNNY     68  46  45 CALM      30.10F
LACON*         SUNNY     65  42  42 CALM      30.10F
LINCOLN*       SUNNY     69  46  44 CALM      30.07S
SPRINGFIELD    SUNNY     67  49  52 SE3       30.10F
TAYLORVILLE    SUNNY     63  48  59 CALM      30.10F
$$

ILZ033-039-045-046-055>057-062-063-170000-
EAST-CENTRAL ILLINOIS

CITY           SKY/WX    TMP DP  RH WIND       PRES   REMARKS
CHAMPAIGN      SUNNY     67  47  48 CALM      30.10F
DANVILLE*      SUNNY     65  48  55 CALM      30.08S HAZE
RANTOUL*       SUNNY     68  42  38 CALM      30.11S
MATTOON        MOSUNNY   64  52  64 VRB3      30.09F
PARIS*         SUNNY     66  49  53 CALM      30.11F
$$

ILZ079-100>102-170000-
SOUTHWEST ILLINOIS

CITY           SKY/WX    TMP DP  RH WIND       PRES   REMARKS
ALTON          PTSUNNY   63  52  67 NW3       30.12S
BELLEVILLE     PTSUNNY   66  54  64 W3        30.10F
CAHOKIA*       SUNNY     66  52  60 E6        30.11F
SPARTA*        MOSUNNY   63  52  67 CALM      30.12F
$$

ILZ064>066-069>071-074>076-080>082-084>086-088>090-092>094-170000-
SOUTH-CENTRAL ILLINOIS

CITY           SKY/WX    TMP DP  RH WIND       PRES   REMARKS
CARBONDALE     CLOUDY    62  53  72 NE3       30.12F
CAIRO*         SUNNY     68  56  65 N7        30.10S
EFFINGHAM*     SUNNY     65  46  50 CALM      30.11F
MARION         CLOUDY    63  54  72 NE6       30.13F
MT. VERNON     PTSUNNY   64  52  63 CALM      30.13S
CENTRALIA*     CLOUDY    63  52  67 CALM      30.12R
SALEM*         SUNNY     63  55  74 N5        30.12S
METROPOLIS*    MOSUNNY   65  55  67 N7        30.10S
$$

ILZ067-068-072-073-078-083-087-091-170000-
SOUTHEAST ILLINOIS

CITY           SKY/WX    TMP DP  RH WIND       PRES   REMARKS
LAWRENCEVILLE  SUNNY     65  51  60 CALM      30.11F
FLORA*         SUNNY     64  49  59 E3        30.12S
FAIRFIELD*     MOSUNNY  N/A N/A N/A CALM      30.12S
HARRISBURG*    CLOUDY    61  53  74 NW3       30.13F
ROBINSON*      PTSUNNY   66  53  62 CALM      30.12S
CARMI*         MOSUNNY   64  54  68 CALM      30.11F
$$

ABBREVIATIONS USED IN REMARKS
   TC - TEMPERATURE IN CELSIUS
  WCI - WIND CHILL INDEX
   HX - HEAT INDEX
  VSB - VISIBILITY
$$




USA.gov is the U.S. government's official web portal to all federal, state and local government web resources and services.